Location: Shepherdstown, WV
(39.4326°N, 77.8042°W)
Time: 09:14:09
(UTC-04:00)

S-56A Canister/Altair - Pass Details

Date: 01 August 2021
Orbit: 632 x 2500 km, 38.9° (Epoch: 18 September)

Event Time Altitude Azimuth Distance (km) Brightness Sun altitude
Rises 23:16:58 0° 286° (WNW) 6,093 12.8 -26.3°
Reaches altitude 10° 23:22:27 10° 274° (W) 4,907 12.0 -26.8°
Maximum altitude 23:31:25 21° 232° (SW) 3,601 10.8 -27.7°
Enters shadow 23:35:05 18° 209° (SSW) 3,568 10.6 -28.0°
